Location: Bay Ridge
(40.6340°N, 74.0146°W)
Time: 11:06:46
(UTC+00:00)

STARLINK-38 - Pass Details

Date: 15 November 2019
Orbit: 529 x 531 km, 53.0° (Epoch: 14 December)

Event Time Altitude Azimuth Distance (km) Brightness Sun altitude
Rises 11:07:58 0° 239° (WSW) 2,662 6.7 -6.9°
Reaches altitude 10° 11:10:10 10° 243° (WSW) 1,783 5.8 -6.5°
Maximum altitude 11:14:10 62° 324° (NW) 616 3.6 -5.8°
Drops below altitude 10° 11:18:18 10° 46° (NE) 1,840 6.7 -5.1°
Sets 11:20:36 0° 50° (NE) 2,757 7.6 -4.7°
